CZ-6A DEB, 54486

Orbit data source: Space-Track

CZ-6A DEB, 54486 is space debris in SSO originally from a launch on Fri, 11 Nov 2022 UTC launched from the Taiyaun Space Center, China (TSC). Debris objects in space refer to the collection of defunct objects orbiting the Earth. Examples of debris include non-operational satellites, rocket bodies, and fragments generated from explosions, collisions, or faulty payload assembly.

Loading next visibility...
Identifier
54486, 2022-151HN
Orbit
SSO
Country
Flag of CNCN / PRC
Related business
Manufacturer
SAST
Mission
Spacecraft
Bus & Motor
Unknown
Mass
Unknown
Launch date (UTC)
2022-11-11 (4 years ago)
Launch vehicle
Unknown
Launch site
Taiyaun Space Center, China (TSC)
Object type
Payload
Rocket body
Debris
Shape & HBR
Unknown shape, 1.1 m
Radar Cross Section
Medium (>0.1 m² and <1 m²)

Expand to show TLE details & history
Last TLE update: 2 days ago

TLE from 2 days ago
0 CZ-6A DEB
1 54486U 22151HN  26262.02068699  .00003857  00000-0  13894-2 0  9996
2 54486  98.7998 283.3643 0074718  58.4700 302.3753 14.32711027199155
Epoch: 2026-09-19T00:29Z
TLE epoch observation values (Epoch: 2026-09-19T00:29:47.355Z)
Latitude
-0.00009°
Longitude
-82.01821°
Altitude
757.244 km
Speed
7.491 km/s
True Right ascension
18h 53m 27s
True Declination
0° 00' 00"
Sunlit
Object was in daylight at epoch
Visualization orbit readout
Latitude
Unknown
Longitude
Unknown
Altitude
Unknown
Speed
Unknown
Apparent Right ascension
Unknown
Apparent Declination
Unknown
Sunlit
N/A
Visualization observer readout
Local Sidereal Time
07:00:24
Azimuth
Unknown
Elevation
Unknown
Doppler factor
Unknown
Orbital elements
Apogee altitude
833.312 km
Perigee altitude
726.346 km
Semi-major axis
7,157.966 km
Eccentricity
0.00747
Inclination
98.7998°
RAAN
283.3643°
Arg. of periapsis
58.47°
True anomaly
301.64857°
Mean anomaly
302.3753°
Eccentric anomaly
302.0123°
Mean motion
3.58392 °/min
Orbital period
100.45 mins
BSTAR
0.0013894
Loading maneuver chart data...
Computing Atmospheric mass density...
Loading historical data...
Loading historical data...
Loading historical data...
Loading historical data...
Loading historical data...
Loading historical data...
Loading historical data...

Documentation

Showing up to 5 results
|